Showing default

CHUANG XIN 1-03, 37930

Orbit data source: Space-Track

CHUANG XIN 1-03, 37930 is a payload satellite owned by CAST (CN) in SSO that was launched on Sun, 20 Nov 2011 UTC via a CHANG ZHENG 2D launch vehicle from the Jiuquan Satellite Launch Center, China (JSC). Payload-class satellites include a variety of spacecraft equipped with specific instruments for various scientific and technological missions. These include communications satellites like Starlink; space stations such as the ISS; scientific satellites like the Hubble; Earth observation satellites from companies like Planet Labs, Umbra, and HawkEye 360; GPS; miniature CubeSats for education and research; and military/defense satellites.

Loading next visibility...
Identifier
37930, 2011-068A
Orbit
SSO
Country
Flag of CNCN / PRC
Related business
Manufacturer
SECM?
Mission
Operational Civil Communications
Bus & Motor
CX, Unknown motor
Mass
~90 kg wet, ~90 kg dry
Launch date (UTC)
2011-11-20 (14 years ago)
Launch vehicle
CHANG ZHENG 2D
Launch site
Jiuquan Satellite Launch Center, China (JSC)
Object type
Payload
Rocket body
Debris
Shape & HBR
Box, 0.3 m
Radar Cross Section
0.375 m², Medium (>0.1 m² and < 1m²)

Expand to show TLE details & history
Last TLE update: 4 hours ago

TLE from 4 hours ago
0 CHUANG XIN 1-03
1 37930U 11068A   26095.29028101  .00000196  00000-0  92268-4 0  9990
2 37930  98.7035 112.8446 0014457 334.7673  82.3520 14.30523093750233
Epoch: 2026-04-05T06:58Z
TLE epoch observation values (Epoch: 2026-04-05T06:58:00.279Z)
Latitude
56.37066°
Longitude
161.51143°
Altitude
798.002 km
Speed
7.461 km/s
True Right ascension
06h 38m 26s
True Declination
56° 12' 46"
Sunlit
Object was in daylight at epoch
Visualization orbit readout
Latitude
Unknown
Longitude
Unknown
Altitude
Unknown
Speed
Unknown
Apparent Right ascension
Unknown
Apparent Declination
Unknown
Sunlit
N/A
Visualization observer readout
Local Sidereal Time
17:02:57
Azimuth
Unknown
Elevation
Unknown
Doppler factor
Unknown
Orbital elements
Apogee altitude
797.486 km
Perigee altitude
776.768 km
Semi-major axis
7,165.264 km
Eccentricity
0.00145
Inclination
98.7035°
RAAN
112.8446°
Arg. of periapsis
334.7673°
True anomaly
82.51623°
Mean anomaly
82.352°
Eccentric anomaly
82.43411°
Mean motion
3.57845 °/min
Orbital period
100.6 mins
BSTAR
0.000092268
Loading maneuver chart data...
Computing Atmospheric mass density...
Loading historical data...
Loading historical data...
Loading historical data...
Loading historical data...
Loading historical data...
Loading historical data...
Loading historical data...

Documentation

Showing up to 5 results
|